Qaqortoq

KL  EN  DA
ASIAQ
Weather Now GREENLAND SURVEY
Updated [WGT/WGST] Temperature [°C] Wind [m/s] Air pressure [hPa] Relative humidity [%] Precipitation [mm]
Present Wind chill Speed Max
21.01 19:00-10,70,00,9 ⇙3,61000500,0
21.01 18:00-9,7-14,72,4 ⇘5,71001460,0
21.01 17:00n/an/a0,8 ⇖4,11001530,0
21.01 16:00-10,70,01,3 ⇘2,61002600,0
21.01 15:00-10,5-16,43,8 ⇘4,61003580,0
21.01 14:00-10,4-14,12,0 ⇓4,61002590,0
21.01 13:00-9,8-12,21,6 ⇘5,71002530,0
21.01 12:00n/an/a1,3 ⇓3,11002490,0
21.01 11:00n/an/a2,3 ⇓3,61002500,0
21.01 10:00-10,0-14,95,0 ⇙8,81002510,0
21.01 09:00-11,2-14,63,3 ⇓5,11002530,0
21.01 08:00-11,3-17,14,6 ⇓7,21001580,0
21.01 07:00-9,9-16,22,6 ⇘4,61000520,0
21.01 06:00-11,2-16,92,3 ⇘3,61000620,0
21.01 05:00-9,60,00,9 ⇙1,01000530,0
21.01 04:00-10,00,00,7 ⇓2,1999570,0
21.01 03:00-9,4-13,21,5 ⇓2,6999520,0
21.01 02:00-9,4-12,91,4 ⇙2,1999530,0
21.01 01:00-10,30,00,5 ⇘1,5999560,0
21.01 00:00-10,70,01,0 ⇙2,1998600,0
20.01 23:00-10,3-13,41,6 ⇘3,6998590,0
20.01 22:00-10,1-14,22,9 ⇓8,8996600,0
20.01 21:00-9,3-15,13,7 ⇓7,2996590,0
20.01 20:00-8,6-15,55,8 ⇓9,3994590,0
20.01 19:00-8,8-15,55,8 ⇘13,9992630,3
Position: (60.716667,-46.033333)

[Back]